Location: Recife
(8.0585°S, 34.8848°W)
Time: 22:35:03
(UTC-03:00)

A-11 Canister half - Pass Details

Date: 16 April 2026
Orbit: 1515 x 1684 km, 47.2° (Epoch: 12 May)

Event Time Altitude Azimuth Distance (km) Brightness Sun altitude
Rises 03:32:11 0° 263° (W) 4,669 - -27.7°
Reaches altitude 10° 03:38:41 10° 296° (WNW) 3,667 - -26.1°
Maximum altitude 03:40:54 11° 310° (NW) 3,585 - -25.5°
Exits shadow 03:42:39 10° 322° (NW) 3,634 10.7 -25.1°
Drops below altitude 10° 03:43:07 10° 324° (NW) 3,663 10.7 -25.0°
Sets 03:49:40 0° 358° (N) 4,653 11.6 -23.4°
